Time,TemperatureF,DewpointF,PressureIn,WindDirection,WindDirectionDegrees,WindSpeedMPH,WindSpeedGustMPH,Humidity,HourlyPrecipIn,Conditions,Clouds,dailyrainin,SoftwareType,DateUTC
2013-01-23 00:02:00,-1.0,-6.0,29.71,WNW,288,0.0,0.0,80,0.00,,,0.00,,2013-01-23 09:02:00,
2013-01-23 00:12:00,-1.0,-6.0,29.71,WNW,288,0.0,0.0,80,0.00,,,0.00,,2013-01-23 09:12:00,
2013-01-23 00:22:00,-1.0,-6.0,29.70,WNW,289,0.0,0.0,80,0.00,,,0.00,,2013-01-23 09:22:00,
2013-01-23 00:32:00,-1.0,-6.0,29.70,WNW,289,0.0,0.0,80,0.00,,,0.00,,2013-01-23 09:32:00,
2013-01-23 00:43:00,-1.0,-6.0,29.70,WNW,289,0.0,0.0,80,0.00,,,0.00,,2013-01-23 09:43:00,
2013-01-23 00:52:00,-2.0,-7.0,29.69,WNW,289,0.0,0.0,79,0.00,,,0.00,,2013-01-23 09:52:00,
2013-01-23 01:02:00,-2.0,-7.0,29.69,WNW,289,0.0,0.0,79,0.00,,,0.00,,2013-01-23 10:02:00,
2013-01-23 01:12:00,-2.0,-7.0,29.69,WNW,289,0.0,0.0,79,0.00,,,0.00,,2013-01-23 10:12:00,
2013-01-23 01:22:00,-2.0,-7.0,29.70,WNW,289,0.0,0.0,80,0.00,,,0.00,,2013-01-23 10:22:00,
2013-01-23 01:32:00,-2.0,-7.0,29.70,WNW,289,0.0,0.0,80,0.00,,,0.00,,2013-01-23 10:32:00,
2013-01-23 01:42:00,-2.0,-7.0,29.70,WNW,289,0.0,0.0,80,0.00,,,0.00,,2013-01-23 10:42:00,
2013-01-23 01:52:00,-2.0,-7.0,29.70,WNW,289,0.0,0.0,80,0.00,,,0.00,,2013-01-23 10:52:00,
2013-01-23 02:02:00,-2.0,-7.0,29.70,WNW,289,0.0,0.0,80,0.00,,,0.00,,2013-01-23 11:02:00,
2013-01-23 02:12:00,-2.0,-7.0,29.70,WNW,289,0.0,0.0,80,0.00,,,0.00,,2013-01-23 11:12:00,
2013-01-23 02:22:00,-2.0,-7.0,29.69,WNW,289,0.0,0.0,79,0.00,,,0.00,,2013-01-23 11:22:00,
2013-01-23 02:33:00,-2.0,-7.0,29.69,WNW,289,0.0,0.0,79,0.00,,,0.00,,2013-01-23 11:33:00,
2013-01-23 02:42:00,-2.0,-7.0,29.69,WNW,289,0.0,0.0,79,0.00,,,0.00,,2013-01-23 11:42:00,
2013-01-23 02:52:00,-3.0,-8.0,29.68,WNW,289,0.0,0.0,80,0.00,,,0.00,,2013-01-23 11:52:00,
2013-01-23 03:03:00,-3.0,-8.0,29.68,WNW,289,0.0,0.0,80,0.00,,,0.00,,2013-01-23 12:03:00,
2013-01-23 03:12:00,-3.0,-8.0,29.68,WNW,289,0.0,0.0,80,0.00,,,0.00,,2013-01-23 12:12:00,
2013-01-23 03:22:00,-2.0,-7.0,29.67,WNW,288,0.0,0.0,80,0.00,,,0.00,,2013-01-23 12:22:00,
2013-01-23 03:33:00,-2.0,-7.0,29.67,WNW,288,0.0,0.0,80,0.00,,,0.00,,2013-01-23 12:33:00,
2013-01-23 03:42:00,-2.0,-7.0,29.67,WNW,288,0.0,0.0,80,0.00,,,0.00,,2013-01-23 12:42:00,
2013-01-23 03:52:00,-2.0,-7.0,29.66,WNW,289,0.0,0.0,80,0.00,,,0.00,,2013-01-23 12:52:00,
2013-01-23 04:03:00,-2.0,-7.0,29.66,WNW,289,0.0,0.0,80,0.00,,,0.00,,2013-01-23 13:03:00,
2013-01-23 04:12:00,-2.0,-7.0,29.66,WNW,289,0.0,0.0,80,0.00,,,0.00,,2013-01-23 13:12:00,
2013-01-23 04:22:00,-2.0,-7.0,29.65,WNW,289,0.0,0.0,80,0.00,,,0.00,,2013-01-23 13:22:00,
2013-01-23 04:33:00,-2.0,-7.0,29.65,WNW,289,0.0,0.0,80,0.00,,,0.00,,2013-01-23 13:33:00,
2013-01-23 04:42:00,-2.0,-7.0,29.65,WNW,289,0.0,0.0,80,0.00,,,0.00,,2013-01-23 13:42:00,
2013-01-23 04:52:00,-2.0,-6.0,29.65,WNW,289,0.0,0.0,81,0.00,,,0.00,,2013-01-23 13:52:00,
2013-01-23 05:02:00,-2.0,-6.0,29.65,WNW,289,0.0,0.0,81,0.00,,,0.00,,2013-01-23 14:02:00,
2013-01-23 05:12:00,-2.0,-6.0,29.65,WNW,289,0.0,0.0,81,0.00,,,0.00,,2013-01-23 14:12:00,
2013-01-23 05:23:00,-2.0,-6.0,29.65,WNW,289,0.0,0.0,81,0.00,,,0.00,,2013-01-23 14:23:00,
2013-01-23 05:33:00,-2.0,-6.0,29.65,WNW,289,0.0,0.0,81,0.00,,,0.00,,2013-01-23 14:33:00,
2013-01-23 05:42:00,-2.0,-6.0,29.65,WNW,289,0.0,0.0,81,0.00,,,0.00,,2013-01-23 14:42:00,
2013-01-23 05:52:00,2.0,-2.0,29.64,WNW,289,0.0,0.0,82,0.00,,,0.00,,2013-01-23 14:52:00,
2013-01-23 06:02:00,2.0,-2.0,29.64,WNW,289,0.0,0.0,82,0.00,,,0.00,,2013-01-23 15:02:00,
2013-01-23 06:12:00,2.0,-2.0,29.64,WNW,289,0.0,0.0,82,0.00,,,0.00,,2013-01-23 15:12:00,
2013-01-23 06:22:00,2.0,-2.0,29.63,WNW,288,0.0,0.0,81,0.00,,,0.00,,2013-01-23 15:22:00,
2013-01-23 06:33:00,2.0,-2.0,29.63,WNW,288,0.0,0.0,81,0.00,,,0.00,,2013-01-23 15:33:00,
2013-01-23 06:43:00,2.0,-2.0,29.63,WNW,288,0.0,0.0,81,0.00,,,0.00,,2013-01-23 15:43:00,
2013-01-23 06:52:00,2.0,-3.0,29.63,WNW,289,0.0,0.0,80,0.00,,,0.00,,2013-01-23 15:52:00,
2013-01-23 07:03:00,2.0,-3.0,29.63,WNW,289,0.0,0.0,80,0.00,,,0.00,,2013-01-23 16:03:00,
2013-01-23 07:12:00,2.0,-3.0,29.63,WNW,289,0.0,0.0,80,0.00,,,0.00,,2013-01-23 16:12:00,
2013-01-23 07:22:00,1.0,-3.0,29.62,WNW,288,0.0,1.0,82,0.00,,,0.00,,2013-01-23 16:22:00,
2013-01-23 07:32:00,1.0,-3.0,29.62,WNW,288,0.0,1.0,82,0.00,,,0.00,,2013-01-23 16:32:00,
2013-01-23 07:42:00,1.0,-3.0,29.62,WNW,288,0.0,1.0,82,0.00,,,0.00,,2013-01-23 16:42:00,
2013-01-23 07:52:00,1.0,-4.0,29.62,WNW,289,0.0,0.0,80,0.00,,,0.00,,2013-01-23 16:52:00,
2013-01-23 08:03:00,1.0,-4.0,29.62,WNW,289,0.0,0.0,80,0.00,,,0.00,,2013-01-23 17:03:00,
2013-01-23 08:12:00,1.0,-4.0,29.62,WNW,289,0.0,0.0,80,0.00,,,0.00,,2013-01-23 17:12:00,
2013-01-23 08:22:00,0.0,-5.0,29.62,WNW,289,0.0,1.0,80,0.00,,,0.00,,2013-01-23 17:22:00,
2013-01-23 08:33:00,0.0,-5.0,29.62,WNW,289,0.0,1.0,80,0.00,,,0.00,,2013-01-23 17:33:00,
2013-01-23 08:42:00,0.0,-5.0,29.62,WNW,289,0.0,1.0,80,0.00,,,0.00,,2013-01-23 17:42:00,
2013-01-23 08:52:00,-1.0,-6.0,29.61,WNW,289,0.0,0.0,78,0.00,,,0.00,,2013-01-23 17:52:00,
2013-01-23 09:03:00,-1.0,-6.0,29.61,WNW,289,0.0,0.0,78,0.00,,,0.00,,2013-01-23 18:03:00,
2013-01-23 09:12:00,-1.0,-6.0,29.61,WNW,289,0.0,0.0,78,0.00,,,0.00,,2013-01-23 18:12:00,
2013-01-23 09:22:00,-3.0,-8.0,29.61,WNW,289,0.0,0.0,79,0.00,,,0.00,,2013-01-23 18:22:00,
2013-01-23 09:33:00,-3.0,-8.0,29.61,WNW,289,0.0,0.0,79,0.00,,,0.00,,2013-01-23 18:33:00,
2013-01-23 09:43:00,-3.0,-8.0,29.61,WNW,289,0.0,0.0,79,0.00,,,0.00,,2013-01-23 18:43:00,
2013-01-23 09:52:00,-2.0,-6.0,29.62,WNW,289,0.0,0.0,81,0.00,,,0.00,,2013-01-23 18:52:00,
2013-01-23 10:02:00,-2.0,-6.0,29.62,WNW,289,0.0,0.0,81,0.00,,,0.00,,2013-01-23 19:02:00,
2013-01-23 10:12:00,-2.0,-6.0,29.62,WNW,289,0.0,0.0,81,0.00,,,0.00,,2013-01-23 19:12:00,
2013-01-23 10:22:00,-1.0,-5.0,29.61,WNW,289,0.0,0.0,81,0.00,,,0.00,,2013-01-23 19:22:00,
2013-01-23 10:33:00,-1.0,-5.0,29.61,WNW,289,0.0,0.0,81,0.00,,,0.00,,2013-01-23 19:33:00,
2013-01-23 10:43:00,-1.0,-5.0,29.61,WNW,289,0.0,0.0,81,0.00,,,0.00,,2013-01-23 19:43:00,
2013-01-23 10:52:00,1.0,-3.0,29.61,WNW,289,0.0,0.0,82,0.00,,,0.00,,2013-01-23 19:52:00,
2013-01-23 11:03:00,1.0,-3.0,29.61,WNW,289,0.0,0.0,82,0.00,,,0.00,,2013-01-23 20:03:00,
2013-01-23 11:12:00,1.0,-3.0,29.61,WNW,289,0.0,0.0,82,0.00,,,0.00,,2013-01-23 20:12:00,
2013-01-23 11:22:00,2.0,-2.0,29.60,WNW,289,0.0,0.0,82,0.00,,,0.00,,2013-01-23 20:22:00,
2013-01-23 11:32:00,2.0,-2.0,29.60,WNW,289,0.0,0.0,82,0.00,,,0.00,,2013-01-23 20:32:00,
2013-01-23 11:42:00,2.0,-2.0,29.60,WNW,289,0.0,0.0,82,0.00,,,0.00,,2013-01-23 20:42:00,
2013-01-23 11:53:00,4.0,0.0,29.60,WNW,288,0.0,0.0,83,0.00,,,0.00,,2013-01-23 20:53:00,
2013-01-23 12:02:00,4.0,0.0,29.60,WNW,288,0.0,0.0,83,0.00,,,0.00,,2013-01-23 21:02:00,
2013-01-23 12:12:00,4.0,0.0,29.60,WNW,288,0.0,0.0,83,0.00,,,0.00,,2013-01-23 21:12:00,
2013-01-23 12:22:00,6.0,2.0,29.59,WNW,289,0.0,0.0,83,0.00,,,0.00,,2013-01-23 21:22:00,
2013-01-23 12:33:00,6.0,2.0,29.59,WNW,289,0.0,0.0,83,0.00,,,0.00,,2013-01-23 21:33:00,
2013-01-23 12:42:00,6.0,2.0,29.59,WNW,289,0.0,0.0,83,0.00,,,0.00,,2013-01-23 21:42:00,
2013-01-23 12:52:00,7.0,3.0,29.59,WNW,289,0.0,0.0,83,0.00,,,0.00,,2013-01-23 21:52:00,
2013-01-23 13:02:00,7.0,3.0,29.59,WNW,289,0.0,0.0,83,0.00,,,0.00,,2013-01-23 22:02:00,
2013-01-23 13:12:00,7.0,3.0,29.59,WNW,289,0.0,0.0,83,0.00,,,0.00,,2013-01-23 22:12:00,
2013-01-23 13:22:00,8.0,4.0,29.59,WNW,289,0.0,0.0,83,0.00,,,0.00,,2013-01-23 22:22:00,
2013-01-23 13:33:00,8.0,4.0,29.59,WNW,289,0.0,0.0,83,0.00,,,0.00,,2013-01-23 22:33:00,
2013-01-23 13:42:00,8.0,4.0,29.59,WNW,289,0.0,0.0,83,0.00,,,0.00,,2013-01-23 22:42:00,
2013-01-23 13:52:00,8.0,4.0,29.58,WNW,288,0.0,0.0,83,0.00,,,0.00,,2013-01-23 22:52:00,
2013-01-23 14:03:00,8.0,4.0,29.58,WNW,288,0.0,0.0,83,0.00,,,0.00,,2013-01-23 23:03:00,
2013-01-23 14:12:00,8.0,4.0,29.58,WNW,288,0.0,0.0,83,0.00,,,0.00,,2013-01-23 23:12:00,
2013-01-23 14:22:00,9.0,4.0,29.58,WNW,288,0.0,0.0,81,0.00,,,0.00,,2013-01-23 23:22:00,
2013-01-23 14:33:00,9.0,4.0,29.58,WNW,288,0.0,0.0,81,0.00,,,0.00,,2013-01-23 23:33:00,
2013-01-23 14:42:00,9.0,4.0,29.58,WNW,288,0.0,0.0,81,0.00,,,0.00,,2013-01-23 23:42:00,
2013-01-23 14:52:00,9.0,4.0,29.57,WNW,288,0.0,0.0,80,0.00,,,0.00,,2013-01-23 23:52:00,
2013-01-23 15:03:00,9.0,4.0,29.57,WNW,288,0.0,0.0,80,0.00,,,0.00,,2013-01-24 00:03:00,
2013-01-23 15:12:00,9.0,4.0,29.57,WNW,288,0.0,0.0,80,0.00,,,0.00,,2013-01-24 00:12:00,
2013-01-23 15:22:00,9.0,4.0,29.57,WNW,289,0.0,0.0,80,0.00,,,0.00,,2013-01-24 00:22:00,
2013-01-23 15:32:00,9.0,4.0,29.57,WNW,289,0.0,0.0,80,0.00,,,0.00,,2013-01-24 00:32:00,
2013-01-23 15:42:00,9.0,4.0,29.57,WNW,289,0.0,0.0,80,0.00,,,0.00,,2013-01-24 00:42:00,
2013-01-23 15:52:00,9.0,4.0,29.57,WNW,289,0.0,0.0,80,0.00,,,0.00,,2013-01-24 00:52:00,
2013-01-23 16:02:00,9.0,4.0,29.57,WNW,289,0.0,0.0,80,0.00,,,0.00,,2013-01-24 01:02:00,
2013-01-23 16:12:00,9.0,4.0,29.57,WNW,289,0.0,0.0,80,0.00,,,0.00,,2013-01-24 01:12:00,
2013-01-23 16:22:00,9.0,4.0,29.57,WNW,289,0.0,0.0,80,0.00,,,0.00,,2013-01-24 01:22:00,
2013-01-23 16:33:00,9.0,4.0,29.57,WNW,289,0.0,0.0,80,0.00,,,0.00,,2013-01-24 01:33:00,
2013-01-23 16:42:00,9.0,4.0,29.57,WNW,289,0.0,0.0,80,0.00,,,0.00,,2013-01-24 01:42:00,
2013-01-23 16:52:00,8.0,3.0,29.57,WNW,289,0.0,0.0,81,0.00,,,0.00,,2013-01-24 01:52:00,
2013-01-23 17:02:00,8.0,3.0,29.57,WNW,289,0.0,0.0,81,0.00,,,0.00,,2013-01-24 02:02:00,
2013-01-23 17:12:00,8.0,3.0,29.57,WNW,289,0.0,0.0,81,0.00,,,0.00,,2013-01-24 02:12:00,
2013-01-23 17:22:00,8.0,3.0,29.58,WNW,289,0.0,0.0,79,0.00,,,0.00,,2013-01-24 02:22:00,
2013-01-23 17:33:00,8.0,3.0,29.58,WNW,289,0.0,0.0,79,0.00,,,0.00,,2013-01-24 02:33:00,
2013-01-23 17:42:00,8.0,3.0,29.58,WNW,289,0.0,0.0,79,0.00,,,0.00,,2013-01-24 02:42:00,
2013-01-23 17:52:00,8.0,3.0,29.58,WNW,289,0.0,0.0,79,0.00,,,0.00,,2013-01-24 02:52:00,
2013-01-23 18:02:00,8.0,3.0,29.58,WNW,289,0.0,0.0,78,0.00,,,0.00,,2013-01-24 03:02:00,
2013-01-23 18:12:00,8.0,3.0,29.58,WNW,289,0.0,0.0,78,0.00,,,0.00,,2013-01-24 03:12:00,
2013-01-23 18:22:00,7.0,1.0,29.58,WNW,289,0.0,0.0,77,0.00,,,0.00,,2013-01-24 03:22:00,
2013-01-23 18:32:00,7.0,1.0,29.58,WNW,289,0.0,0.0,77,0.00,,,0.00,,2013-01-24 03:32:00,
2013-01-23 18:42:00,7.0,1.0,29.58,WNW,289,0.0,0.0,77,0.00,,,0.00,,2013-01-24 03:42:00,
2013-01-23 18:52:00,7.0,1.0,29.58,WNW,289,0.0,0.0,75,0.00,,,0.00,,2013-01-24 03:52:00,
2013-01-23 19:02:00,7.0,1.0,29.58,WNW,289,0.0,0.0,75,0.00,,,0.00,,2013-01-24 04:02:00,
2013-01-23 19:12:00,7.0,1.0,29.58,WNW,289,0.0,0.0,75,0.00,,,0.00,,2013-01-24 04:12:00,
2013-01-23 19:22:00,7.0,0.0,29.58,WNW,288,0.0,1.0,74,0.00,,,0.00,,2013-01-24 04:22:00,
2013-01-23 19:32:00,7.0,0.0,29.58,WNW,288,0.0,1.0,74,0.00,,,0.00,,2013-01-24 04:32:00,
2013-01-23 19:42:00,7.0,0.0,29.58,WNW,288,0.0,1.0,74,0.00,,,0.00,,2013-01-24 04:42:00,
2013-01-23 19:52:00,7.0,0.0,29.59,WNW,289,0.0,0.0,73,0.00,,,0.00,,2013-01-24 04:52:00,
2013-01-23 20:03:00,7.0,0.0,29.59,WNW,289,0.0,0.0,73,0.00,,,0.00,,2013-01-24 05:03:00,
2013-01-23 20:12:00,7.0,0.0,29.59,WNW,289,0.0,0.0,73,0.00,,,0.00,,2013-01-24 05:12:00,
2013-01-23 20:22:00,7.0,0.0,29.59,WNW,289,0.0,0.0,71,0.00,,,0.00,,2013-01-24 05:22:00,
2013-01-23 20:32:00,7.0,0.0,29.59,WNW,289,0.0,0.0,71,0.00,,,0.00,,2013-01-24 05:32:00,
2013-01-23 20:42:00,7.0,0.0,29.59,WNW,289,0.0,0.0,71,0.00,,,0.00,,2013-01-24 05:42:00,
2013-01-23 20:52:00,7.0,0.0,29.59,WNW,289,0.0,0.0,72,0.00,,,0.00,,2013-01-24 05:52:00,
2013-01-23 21:02:00,7.0,0.0,29.59,WNW,289,0.0,0.0,72,0.00,,,0.00,,2013-01-24 06:02:00,
2013-01-23 21:12:00,7.0,0.0,29.59,WNW,289,0.0,0.0,72,0.00,,,0.00,,2013-01-24 06:12:00,
2013-01-23 21:22:00,6.0,0.0,29.59,WNW,288,0.0,0.0,75,0.00,,,0.00,,2013-01-24 06:22:00,
2013-01-23 21:32:00,6.0,0.0,29.59,WNW,288,0.0,0.0,75,0.00,,,0.00,,2013-01-24 06:32:00,
2013-01-23 21:42:00,6.0,0.0,29.59,WNW,288,0.0,0.0,75,0.00,,,0.00,,2013-01-24 06:42:00,
2013-01-23 21:52:00,6.0,-1.0,29.60,WNW,289,0.0,1.0,73,0.00,,,0.00,,2013-01-24 06:52:00,
2013-01-23 22:02:00,6.0,-1.0,29.60,WNW,289,0.0,1.0,73,0.00,,,0.00,,2013-01-24 07:02:00,
2013-01-23 22:12:00,6.0,-1.0,29.60,WNW,289,0.0,1.0,73,0.00,,,0.00,,2013-01-24 07:12:00,
2013-01-23 22:22:00,6.0,-1.0,29.60,SW,234,0.0,1.0,71,0.00,,,0.00,,2013-01-24 07:22:00,
2013-01-23 22:33:00,6.0,-1.0,29.60,SW,234,0.0,1.0,71,0.00,,,0.00,,2013-01-24 07:33:00,
2013-01-23 22:42:00,6.0,-1.0,29.60,SW,234,0.0,1.0,71,0.00,,,0.00,,2013-01-24 07:42:00,
2013-01-23 22:52:00,6.0,-3.0,29.60,SE,128,0.0,1.0,67,0.00,,,0.00,,2013-01-24 07:52:00,
2013-01-23 23:02:00,6.0,-3.0,29.60,SE,128,0.0,1.0,67,0.00,,,0.00,,2013-01-24 08:02:00,
2013-01-23 23:12:00,6.0,-3.0,29.60,SE,128,0.0,1.0,67,0.00,,,0.00,,2013-01-24 08:12:00,
2013-01-23 23:22:00,6.0,-3.0,29.61,SW,224,0.0,1.0,67,0.00,,,0.00,,2013-01-24 08:22:00,
2013-01-23 23:32:00,6.0,-3.0,29.61,SW,224,0.0,1.0,67,0.00,,,0.00,,2013-01-24 08:32:00,
2013-01-23 23:42:00,6.0,-3.0,29.61,SW,224,0.0,1.0,67,0.00,,,0.00,,2013-01-24 08:42:00,
2013-01-23 23:52:00,5.0,-4.0,29.62,South,184,0.0,2.0,66,0.00,,,0.00,,2013-01-24 08:52:00,